Location: Unspecified
(0.0000°N, 0.0000°E)
Time: 20:26:42
(UTC+00:00)

SR - Visible Passes

Search period start: 27 June 2016 00:00
Search period end: 07 July 2016 00:00
Orbit: 583 x 875 km, 66.7° (Epoch: 26 June)

Date Brightness Start Highest point End Pass type
(mag) Time Alt. Az. Time Alt. Az. Time Alt. Az.
27 Jun ? 18:21:57 10° NW 18:25:57 35° WSW 18:30:13 10° S visible
28 Jun ? 05:06:10 10° S 05:11:23 35° ESE 05:16:19 10° NE visible
29 Jun ? 04:19:02 10° SE 04:22:03 14° ESE 04:24:59 10° E visible
29 Jun ? 18:27:11 10° W 18:29:25 14° WSW 18:31:43 10° SW visible
30 Jun ? 05:09:02 10° SSW 05:14:50 80° ESE 05:20:15 10° NNE visible
01 Jul ? 04:20:31 10° S 04:25:33 33° ESE 04:30:25 10° NE visible
02 Jul ? 03:33:36 10° SE 03:36:13 14° ESE 03:38:52 10° E visible
02 Jul ? 05:13:05 11° SW 05:18:13 44° WNW 05:23:19 10° N visible
03 Jul ? 04:26:08 30° S 04:29:01 76° ESE 04:34:24 10° NNE visible
04 Jul ? 03:39:08 30° ESE 03:39:44 31° ESE 03:44:29 10° NE visible
04 Jul ? 05:18:38 13° WSW 05:21:32 19° WNW 05:25:16 10° NNW visible
05 Jul ? 02:52:04 11° E 02:52:04 11° E 02:52:43 10° E visible
05 Jul ? 04:31:34 43° W 04:32:23 46° WNW 04:37:30 10° N visible
06 Jul ? 03:44:26 53° NE 03:44:26 53° NE 03:48:32 10° NNE visible
